{"data":{"norad_id":29268,"epoch":"2026-05-25T05:04:16.554144Z","epoch_age_seconds":67461,"freshness":"FRESH","line1":"1 29268U 06031A   26145.21130271  .00000032  00000+0  14437-4 0  9999","line2":"2 29268  97.8314 330.7700 0015220 141.7985 329.3397 14.64641736 58119","mean_motion":14.64641736,"eccentricity":0.001522,"inclination_deg":97.8314,"raan_deg":330.77,"arg_perigee_deg":141.7985,"mean_anomaly_deg":329.3397,"bstar":1.4437e-5,"rev_number":5811,"period_min":98.317558799922,"perigee_km":667.48605717312,"apogee_km":688.96562566239,"semimajor_km":7056.3628414178,"source":"CELESTRAK","updated_at":"2026-05-25T13:38:12.743709Z"}}